This demonstration page uses our WeatherBlox Daily Observations layout. Learn more.

39.92423, -83.80882

Hourly Observations for December 16, 2017

Temp ( °F °C ) Dew Point ( °F °C ) Humidity (%) Winds ( mph kmh ) Pressure ( in mb ) Visibility ( mi km ) Precip ( " mm )
12:56 am 00:56 Cloudy 29 -1.7 23 -5 78 78 SSW 9 15 30.07 1018 10 16.0934 0 0
1:56 am 01:56 Cloudy 30 -1.1 24 -4.4 79 79 SSW 10 17 30.06 1018 10 16.0934 0 0
2:56 am 02:56 Cloudy 31 -0.6 24 -4.4 76 76 SW 12 19 30.08 1019 10 16.0934 0 0
3:56 am 03:56 Cloudy 31 -0.6 25 -3.9 79 79 SW 12 19 30.08 1019 10 16.0934 0 0
4:56 am 04:56 Cloudy 31 -0.6 25 -3.9 79 79 SSW 8 13 30.06 1018 10 16.0934 0 0
5:56 am 05:56 Cloudy 32 0 25 -3.9 75 75 SSW 9 15 30.06 1018 10 16.0934 0 0
6:56 am 06:56 Mostly Cloudy 32 0 25 -3.9 75 75 SSW 10 17 30.07 1018 10 16.0934 0 0
7:56 am 07:56 Mostly Cloudy 32 0 26 -3.3 79 79 SW 13 20 30.06 1018 10 16.0934 0 0
8:56 am 08:56 Sunny 34 1.1 26 -3.3 73 73 SW 15 24 30.06 1018 10 16.0934 0 0
9:56 am 09:56 Sunny 35 1.7 26 -3.3 70 70 SW 16 26 30.07 1018 10 16.0934 0 0
10:56 am 10:56 Sunny 39 3.9 27 -2.8 62 62 SW 16 26 30.08 1019 10 16.0934 0 0
11:56 am 11:56 Sunny 42 5.6 27 -2.8 55 55 SW 18 30 30.06 1018 10 16.0934 0 0
12:56 pm 12:56 Sunny 44 6.7 28 -2.2 53 53 WSW 17 28 30.04 1017 10 16.0934 0 0
1:56 pm 13:56 Sunny 46 7.8 27 -2.8 47 47 SW 20 31 30.03 1017 10 16.0934 0 0
2:56 pm 14:56 Sunny 47 8.3 28 -2.2 48 48 SW 18 30 30.02 1017 10 16.0934 0 0
3:56 pm 15:56 Sunny 47 8.3 28 -2.2 48 48 SSW 15 24 30.03 1017 10 16.0934 0 0
4:56 pm 16:56 Sunny 45 7.2 27 -2.8 49 49 SSW 10 17 30.04 1017 10 16.0934 0 0
5:56 pm 17:56 Clear 42 5.6 27 -2.8 55 55 SSW 12 19 30.06 1018 10 16.0934 0 0
6:56 pm 18:56 Clear 40 4.4 27 -2.8 60 60 SW 8 13 30.09 1019 10 16.0934 0 0
7:56 pm 19:56 Clear 38 3.3 27 -2.8 65 65 SW 7 11 30.12 1020 10 16.0934 0 0
8:56 pm 20:56 Clear 37 2.8 26 -3.3 65 65 SW 6 9 30.13 1020 10 16.0934 0 0
9:56 pm 21:56 Clear 35 1.7 26 -3.3 70 70 SW 5 7 30.16 1021 10 16.0934 0 0
10:56 pm 22:56 Clear 36 2.2 26 -3.3 67 67 SSW 5 7 30.17 1022 10 16.0934 0 0
11:56 pm 23:56 Clear 35 1.7 26 -3.3 70 70 SSW 6 9 30.19 1022 10 16.0934 0 0

Powered by AerisWeather